Time,TemperatureF,DewpointF,PressureIn,WindDirection,WindDirectionDegrees,WindSpeedMPH,WindSpeedGustMPH,Humidity,HourlyPrecipIn,Conditions,Clouds,dailyrainin,SoftwareType,DateUTC
2013-06-17 11:52:00,75.0,62.0,29.88,North,0,0.0,0.0,63,0.00,,,0.00,,2013-06-17 15:52:00,
2013-06-17 12:02:00,75.0,62.0,29.88,North,0,0.0,0.0,63,0.00,,,0.00,,2013-06-17 16:02:00,
2013-06-17 12:12:00,75.0,61.0,29.88,North,0,0.0,0.0,62,0.00,,,0.00,,2013-06-17 16:12:00,
2013-06-17 12:22:00,75.0,61.0,29.88,NE,34,1.0,6.0,62,0.00,,,0.00,,2013-06-17 16:22:00,
2013-06-17 12:33:00,76.0,62.0,29.88,SSE,164,0.0,7.0,61,0.00,,,0.00,,2013-06-17 16:33:00,
2013-06-17 12:43:00,77.0,62.0,29.88,SSE,164,0.0,0.0,59,0.00,,,0.00,,2013-06-17 16:43:00,
2013-06-17 12:53:00,78.0,62.0,29.88,SSE,164,0.0,0.0,57,0.00,,,0.00,,2013-06-17 16:53:00,
2013-06-17 13:02:00,79.0,61.0,29.88,SSE,164,0.0,0.0,55,0.00,,,0.00,,2013-06-17 17:02:00,
2013-06-17 13:12:00,79.0,61.0,29.87,SSE,164,0.0,0.0,55,0.00,,,0.00,,2013-06-17 17:12:00,
2013-06-17 13:22:00,81.0,62.0,29.87,SSE,164,0.0,0.0,53,0.00,,,0.00,,2013-06-17 17:22:00,
2013-06-17 13:33:00,81.0,62.0,29.87,SSE,164,0.0,0.0,53,0.00,,,0.00,,2013-06-17 17:33:00,
2013-06-17 13:43:00,81.0,61.0,29.87,SSE,164,0.0,5.0,51,0.00,,,0.00,,2013-06-17 17:43:00,
2013-06-17 13:52:00,81.0,61.0,29.87,SSE,164,0.0,2.0,50,0.00,,,0.00,,2013-06-17 17:52:00,
2013-06-17 14:02:00,81.0,61.0,29.87,SSE,164,0.0,0.0,50,0.00,,,0.00,,2013-06-17 18:02:00,
2013-06-17 14:12:00,81.0,61.0,29.87,SSE,164,0.0,0.0,50,0.00,,,0.00,,2013-06-17 18:12:00,
2013-06-17 14:23:00,80.0,61.0,29.86,SSE,164,0.0,0.0,53,0.00,,,0.00,,2013-06-17 18:23:00,
2013-06-17 14:33:00,80.0,61.0,29.86,SSE,164,0.0,0.0,53,0.00,,,0.00,,2013-06-17 18:33:00,
2013-06-17 14:43:00,80.0,61.0,29.86,SSE,164,0.0,0.0,52,0.00,,,0.00,,2013-06-17 18:43:00,
2013-06-17 14:53:00,80.0,61.0,29.86,SSE,164,0.0,0.0,52,0.00,,,0.00,,2013-06-17 18:53:00,
2013-06-17 15:02:00,80.0,61.0,29.86,SSE,164,0.0,0.0,53,0.00,,,0.00,,2013-06-17 19:02:00,
2013-06-17 15:12:00,80.0,62.0,29.86,SSE,164,0.0,0.0,55,0.00,,,0.00,,2013-06-17 19:12:00,
2013-06-17 15:22:00,80.0,62.0,29.85,North,0,0.0,6.0,54,0.00,,,0.00,,2013-06-17 19:22:00,
2013-06-17 15:33:00,80.0,61.0,29.85,North,0,0.0,0.0,53,0.00,,,0.00,,2013-06-17 19:33:00,
2013-06-17 15:43:00,79.0,61.0,29.85,North,0,0.0,0.0,54,0.00,,,0.00,,2013-06-17 19:43:00,
2013-06-17 15:53:00,78.0,62.0,29.85,NNE,32,1.0,7.0,57,0.00,,,0.00,,2013-06-17 19:53:00,
2013-06-17 16:02:00,77.0,62.0,29.84,ESE,113,2.0,9.0,59,0.00,,,0.00,,2013-06-17 20:02:00,
2013-06-17 16:11:00,72.0,62.0,29.91,WSW,241,1.0,14.0,70,0.25,,,0.25,,2013-06-17 20:11:00,
2013-06-17 16:22:00,67.0,62.0,29.89,NW,304,3.0,8.0,83,0.43,,,0.43,,2013-06-17 20:22:00,
2013-06-17 16:34:00,66.0,61.0,29.89,West,263,0.0,3.0,84,0.43,,,0.43,,2013-06-17 20:34:00,
2013-06-17 16:43:00,67.0,62.0,29.88,West,263,0.0,0.0,84,0.43,,,0.43,,2013-06-17 20:43:00,
2013-06-17 16:52:00,68.0,63.0,29.89,West,263,0.0,0.0,85,0.43,,,0.43,,2013-06-17 20:52:00,
2013-06-17 17:02:00,69.0,64.0,29.89,West,263,0.0,0.0,84,0.43,,,0.43,,2013-06-17 21:02:00,
2013-06-17 17:12:00,70.0,65.0,29.89,West,263,0.0,0.0,84,0.18,,,0.43,,2013-06-17 21:12:00,
2013-06-17 17:22:00,70.0,65.0,29.89,West,263,0.0,0.0,84,0.00,,,0.43,,2013-06-17 21:22:00,
2013-06-17 17:33:00,70.0,65.0,29.89,West,263,0.0,0.0,84,0.00,,,0.43,,2013-06-17 21:33:00,
2013-06-17 20:33:00,69.0,65.0,29.91,West,263,0.0,0.0,86,0.00,,,0.43,,2013-06-18 00:33:00,
2013-06-17 20:43:00,69.0,65.0,29.92,West,263,0.0,0.0,86,0.00,,,0.43,,2013-06-18 00:43:00,
2013-06-17 20:52:00,68.0,64.0,29.93,West,263,0.0,0.0,86,0.00,,,0.43,,2013-06-18 00:52:00,
2013-06-17 21:01:00,68.0,64.0,29.93,West,263,0.0,0.0,86,0.00,,,0.43,,2013-06-18 01:01:00,
2013-06-17 21:12:00,68.0,64.0,29.93,West,263,0.0,0.0,86,0.00,,,0.43,,2013-06-18 01:12:00,
2013-06-17 21:23:00,68.0,64.0,29.93,West,263,0.0,0.0,87,0.00,,,0.43,,2013-06-18 01:23:00,
2013-06-17 21:34:00,68.0,64.0,29.94,West,263,0.0,0.0,87,0.00,,,0.43,,2013-06-18 01:34:00,
2013-06-17 21:44:00,67.0,63.0,29.94,West,263,0.0,0.0,87,0.00,,,0.43,,2013-06-18 01:44:00,
2013-06-17 21:53:00,67.0,63.0,29.94,West,263,0.0,0.0,87,0.00,,,0.43,,2013-06-18 01:53:00,
2013-06-17 22:02:00,66.0,62.0,29.95,West,263,0.0,0.0,87,0.00,,,0.43,,2013-06-18 02:02:00,
2013-06-17 22:12:00,66.0,62.0,29.96,West,263,0.0,0.0,87,0.00,,,0.43,,2013-06-18 02:12:00,
2013-06-17 22:22:00,65.0,61.0,29.95,West,263,0.0,0.0,87,0.00,,,0.43,,2013-06-18 02:22:00,
2013-06-17 22:34:00,64.0,60.0,29.96,West,263,0.0,0.0,87,0.00,,,0.43,,2013-06-18 02:34:00,
2013-06-17 22:43:00,64.0,60.0,29.95,West,263,0.0,0.0,88,0.00,,,0.43,,2013-06-18 02:43:00,
2013-06-17 22:53:00,64.0,60.0,29.95,West,263,0.0,0.0,88,0.00,,,0.43,,2013-06-18 02:53:00,
2013-06-17 23:02:00,64.0,60.0,29.95,West,263,0.0,0.0,88,0.00,,,0.43,,2013-06-18 03:02:00,
2013-06-17 23:12:00,64.0,60.0,29.94,West,263,0.0,0.0,88,0.00,,,0.43,,2013-06-18 03:12:00,
2013-06-17 23:23:00,63.0,59.0,29.94,West,263,0.0,0.0,88,0.00,,,0.43,,2013-06-18 03:23:00,
2013-06-17 23:34:00,63.0,59.0,29.94,West,263,0.0,0.0,88,0.00,,,0.43,,2013-06-18 03:34:00,
2013-06-17 23:43:00,63.0,59.0,29.94,West,263,0.0,0.0,88,0.00,,,0.43,,2013-06-18 03:43:00,
2013-06-17 23:53:00,63.0,59.0,29.94,West,263,0.0,0.0,88,0.00,,,0.43,,2013-06-18 03:53:00,